Location: ?????
(55.6500°N, 37.2500°E)
Time: 06:58:53
(UTC+00:00)

ARIANE 5 R/B - Pass Details

Date: 19 May 2025
Orbit: 615 x 647 km, 98.0° (Epoch: 20 June)

Event Time Altitude Azimuth Distance (km) Brightness Sun altitude
Exits shadow 19:46:28 16° 142° (SE) 1,641 4.1 -11.4°
Maximum altitude 19:49:48 55° 68° (ENE) 755 3.0 -11.6°
Drops below altitude 10° 19:54:05 10° 351° (N) 2,014 6.6 -11.8°
Sets 19:56:19 0° 347° (NNW) 2,930 8.0 -12.0°
